Regional Weather Roundup
Issued by NWS Green Bay, WI

Home | Current Version | Previous Version | Text Only | Print | Product List | Glossary On
Versions: 1 2 3 4 5 6 7 8 9 10 11 12 13 14 15 16 17 18 19 20 21 22 23 24 25 26 27 28 29 30 31 32 33 34 35 36 37 38 39 40 41 42 43 44 45 46 47 48 49 50
000
ASUS43 KGRB 211400
RWRGRB

NORTH-CENTRAL AND NORTHEAST WISCONSIN REGIONAL WEATHER ROUNDUP
NATIONAL WEATHER SERVICE GREEN BAY WI
800 AM CST TUE NOV 21 2017

WIZ005-009-010>012-018-019-211500-
NORTH CENTRAL WISCONSIN

CITY           SKY/WX    TMP DP  RH WIND       PRES   REMARKS
IRONWOOD       FLURRIES  24  15  68 W21G28    29.66R WCI   9
MANITOWISH WTR NOT AVBL
ARBOR VITAE    NOT AVBL
EAGLE RIVER    FLURRIES  26  13  59 W16G31    29.59R
LAND O LAKES   NOT AVBL
RHINELANDER    FLURRIES  27  17  66 NW16G26   29.61R
PHILLIPS       CLOUDY    24  13  62 NW10G24   29.68R
ANTIGO         NOT AVBL
TOMAHAWK       NOT AVBL
MERRILL        CLOUDY    30  17  59 NW16G26   29.64R
$$

WIZ013-073-211500-
NORTHEAST WISCONSIN

CITY           SKY/WX    TMP DP  RH WIND       PRES   REMARKS
IRON MOUNTAIN  FLURRIES  31  18  58 NW21G31   29.53R
MARINETTE      CLEAR     37  18  46 NW12G23   29.56R
$$

WIZ017-030-035>037-045-211500-
CENTRAL WISCONSIN

CITY           SKY/WX    TMP DP  RH WIND       PRES   REMARKS
MEDFORD        NOT AVBL
WAUSAU         CLOUDY    30  20  66 NW20G29   29.63R
MOSINEE        MOCLDY    30  18  59 W24G31    29.65R
MARSHFIELD     CLOUDY    28  15  58 NW25G33   29.69R
WISC RAPIDS    CLEAR     30  16  56 NW18G31   29.71R
STEVENS POINT  NOT AVBL
WAUPACA        NOT AVBL
SHAWANO        PTCLDY    37  20  51 W9G16     29.60R
CLINTONVILLE   NOT AVBL
WAUTOMA        CLEAR     34  18  52 NW17G25   29.68R
$$

WIZ038-039-048-051-211500-
FOX VALLEY

CITY           SKY/WX    TMP DP  RH WIND       PRES   REMARKS
NWS GREEN BAY  PTCLDY    37  25  61 W17G26    29.60R
APPLETON       MOCLDY    36  19  51 W16G25    29.60R
OSHKOSH        MOCLDY    37  19  48 NW15G31   29.63R
FOND DU LAC    CLOUDY    39  15  37 NW18G31   29.64R
$$

WIZ022-050-052-211500-
EAST CENTRAL WISCONSIN

CITY           SKY/WX    TMP DP  RH WIND       PRES   REMARKS
EPHRAIM        NOT AVBL
WASHINGTON ISL NOT AVBL
STURGEON BAY   CLEAR     38  23  55 W13       29.57R
MANITOWOC      MOCLDY    39  23  52 W17G26    29.61R
SHEBOYGAN      PTCLDY    41  18  39 W17G28    29.61R
$$

LMZ563-521-522-541>543-211500-
LAKESHORE

STATION/POSITION TIME  TEMP    WIND        PRES    VSBY  WAVE
                       AIR SEA DIR/SP/G                  HT/PER
                 (UTC) (F)     (DEG/KT/KT) (MB)    (MI)  (FT/S)
SHEBOYGAN LKSHOR 1300   45     270/ 12/ 15 1001.0R
KEWAUNEE LKSHORE 1330   40     290/  9/ 17 1000.2R
NORTHPORT PIER   1340   40     290/ 11/ 23  999.7R
N MID LAKE BUOY  1250   43 48  270/ 25/ 31  997.2R         9/ 8
SISTER BAY LKSHO 1305   41     310/ 21/ 24   N/A
MENOMINEE LKSHOR 1330   38     280/ 12/ 22  999.8R
$$



USA.gov is the U.S. government's official web portal to all federal, state and local government web resources and services.